Regional Weather Roundup
Issued by NWS

Home | Current Version | Previous Version | Text Only | Print | Product List | Glossary Off
Versions: 1 2 3 4 5 6 7 8 9 10 11 12 13 14 15 16 17 18 19 20 21 22 23 24 25 26 27 28 29 30 31 32 33 34 35 36 37 38 39 40 41 42 43 44 45 46 47 48 49 50

000
ASUS43 KFSD 162210
RWRSD

WEATHER ROUNDUP FOR SOUTH DAKOTA
NATIONAL WEATHER SERVICE SIOUX FALLS SD
500 PM CDT MON OCT 16 2017

NOTE: "FAIR" INDICATES FEW OR NO CLOUDS BELOW 12,000 FEET WITH NO
SIGNIFICANT WEATHER AND/OR OBSTRUCTIONS TO VISIBILITY.


SDZ001>005-009-010-012>017-162300-
NORTHWEST AND NORTH CENTRAL SOUTH DAKOTA

CITY           SKY/WX    TMP DP  RH WIND       PRES   REMARKS
BUFFALO          N/A     70  26  19 W24       29.99R
FAITH            N/A     72  29  20 NW14      30.02R
MOBRIDGE       CLOUDY    76  35  22 W13       29.93F
$$

SDZ012>016-024>037-041>051-057-063-072>074-162300-
SOUTHWEST AND SOUTH CENTRAL SOUTH DAKOTA

CITY           SKY/WX    TMP DP  RH WIND       PRES   REMARKS
RAPID CTY ARPT SUNNY     75  25  15 N16       30.05S
PIERRE         SUNNY     74  38  27 SW5       29.98F
CUSTER         SUNNY     66  19  16 W9        30.17R
ELLSWORTH AFB  SUNNY     74  24  15 NW22      30.04S
PHILIP         SUNNY     77  29  17 NW12      30.01S
PINE RIDGE     SUNNY     72  25  17 NW9       30.08S
SPEARFISH      FAIR      70  28  21 NW10G20   30.11R
WINNER         FAIR      75  41  29 NW8       30.02S
$$

SDZ004>011-016>023-039-040-162300-
NORTHEAST SOUTH DAKOTA

CITY           SKY/WX    TMP DP  RH WIND       PRES   REMARKS
ABERDEEN       CLOUDY    70  41  34 S9        29.94F
WATERTOWN      CLOUDY    65  42  43 SW10      29.98S
BROOKINGS      SUNNY     70  38  31 SW12      30.00S
SISSETON         N/A     67  40  37 SW14G22   29.92F
$$

SDZ017-020-022-023-036>040-048>070-162300-
SOUTHEAST SOUTH DAKOTA

CITY           SKY/WX    TMP DP  RH WIND       PRES   REMARKS
SIOUX FALLS    CLOUDY    74  38  27 SW10G20   30.00F
HURON          SUNNY     68  41  37 W6        29.99F
CHAMBERLAIN    SUNNY     73  40  30 CALM      30.01R
MITCHELL       SUNNY     73  39  29 W8        30.00S
YANKTON        SUNNY     76  37  24 SW13G21   30.01S
$$

ABBREVIATIONS USED IN REMARKS
   TC - TEMPERATURE IN CELSIUS
  WCI - WIND CHILL INDEX
   HX - HEAT INDEX
  VSB - VISIBILITY




USA.gov is the U.S. government's official web portal to all federal, state and local government web resources and services.